When you browse on this site, cookies collect data to enhance your experience and personalize the content and advertising you see.
Visit our Privacy Policy to learn more. By continuing to use the site, you agree to this use of cookies and data.
EN

Hourly Weather San Miguel de Tucumán

Today, 15 July, Wednesday

Time Temperature Precipitation Wind Pressure Humidity
00:00 +11°C° 0 mm 1 mps 722 mmHg 74%
01:00 +10°C° 0 mm 1 mps 722 mmHg 76%
02:00 +9°C° 0 mm 0 mps 721 mmHg 78%
03:00 +9°C° 0 mm 0 mps 721 mmHg 79%
04:00 +8°C° 0 mm 0 mps 720 mmHg 81%
05:00 +8°C° 0 mm 0 mps 720 mmHg 83%
06:00 +9°C° 0 mm 0 mps 720 mmHg 80%
07:00 +9°C° 0 mm 0 mps 721 mmHg 78%
08:00 +10°C° 0 mm 0 mps 721 mmHg 76%
09:00 +13°C° 0 mm 1 mps 721 mmHg 68%
10:00 +16°C° 0 mm 1 mps 721 mmHg 59%
11:00 +19°C° 0 mm 1 mps 721 mmHg 51%
12:00 +20°C° 0 mm 1 mps 720 mmHg 48%
13:00 +21°C° 0 mm 1 mps 719 mmHg 45%
14:00 +23°C° 0 mm 2 mps 719 mmHg 43%
15:00 +21°C° 0 mm 2 mps 719 mmHg 44%
16:00 +20°C° 0 mm 2 mps 719 mmHg 46%
17:00 +20°C° 0 mm 2 mps 719 mmHg 48%
18:00 +18°C° 0 mm 2 mps 719 mmHg 54%
19:00 +16°C° 0 mm 1 mps 720 mmHg 60%
20:00 +14°C° 0 mm 1 mps 720 mmHg 66%
21:00 +13°C° 0 mm 1 mps 720 mmHg 68%
22:00 +12°C° 0 mm 1 mps 720 mmHg 70%
23:00 +11°C° 0 mm 1 mps 720 mmHg 73%

Tomorrow, 16 July, Thursday

Time Temperature Precipitation Wind Pressure Humidity
00:00 +11°C° 0 mm 1 mps 720 mmHg 74%
01:00 +10°C° 0 mm 1 mps 720 mmHg 75%
02:00 +9°C° 0 mm 0 mps 720 mmHg 75%
03:00 +10°C° 0 mm 1 mps 720 mmHg 76%
04:00 +10°C° 0 mm 1 mps 719 mmHg 77%
05:00 +10°C° 0 mm 1 mps 719 mmHg 77%
06:00 +10°C° 0 mm 1 mps 719 mmHg 75%
07:00 +11°C° 0 mm 1 mps 720 mmHg 72%
08:00 +10°C° 0 mm 0 mps 720 mmHg 69%
09:00 +14°C° 0 mm 1 mps 720 mmHg 62%
10:00 +16°C° 0 mm 1 mps 720 mmHg 54%
11:00 +20°C° 0 mm 1 mps 720 mmHg 46%
12:00 +21°C° 0 mm 1 mps 720 mmHg 44%
13:00 +22°C° 0 mm 1 mps 719 mmHg 42%
14:00 +23°C° 0 mm 1 mps 719 mmHg 40%
15:00 +22°C° 0 mm 1 mps 718 mmHg 43%
16:00 +22°C° 0 mm 1 mps 718 mmHg 46%
17:00 +21°C° 0 mm 1 mps 718 mmHg 48%
18:00 +19°C° 0 mm 1 mps 718 mmHg 54%
19:00 +16°C° 0 mm 1 mps 719 mmHg 60%
20:00 +14°C° 0 mm 1 mps 719 mmHg 66%
21:00 +14°C° 0 mm 1 mps 719 mmHg 68%
22:00 +14°C° 0 mm 1 mps 719 mmHg 70%
23:00 +13°C° 0 mm 1 mps 719 mmHg 72%

Day after tomorrow, 17 July, Friday

Time Temperature Precipitation Wind Pressure Humidity
00:00 +13°C° 0 mm 1 mps 719 mmHg 74%
01:00 +12°C° 0 mm 1 mps 718 mmHg 75%
02:00 +12°C° 0 mm 1 mps 718 mmHg 77%
03:00 +12°C° 0 mm 1 mps 718 mmHg 77%
04:00 +12°C° 0 mm 1 mps 717 mmHg 78%
05:00 +10°C° 0 mm 0 mps 717 mmHg 79%
06:00 +11°C° 0 mm 0 mps 717 mmHg 77%
07:00 +12°C° 0 mm 0 mps 717 mmHg 74%
08:00 +12°C° 0 mm 0 mps 717 mmHg 72%
09:00 +16°C° 0 mm 1 mps 718 mmHg 64%
10:00 +20°C° 0 mm 1 mps 718 mmHg 56%
11:00 +22°C° 0 mm 1 mps 718 mmHg 48%
12:00 +24°C° 0 mm 2 mps 717 mmHg 46%
13:00 +25°C° 0 mm 2 mps 716 mmHg 43%
14:00 +27°C° 0 mm 2 mps 715 mmHg 41%
15:00 +27°C° 0 mm 2 mps 714 mmHg 43%
16:00 +26°C° 0 mm 2 mps 714 mmHg 46%
17:00 +26°C° 0 mm 1 mps 714 mmHg 49%
18:00 +24°C° 0 mm 1 mps 714 mmHg 54%
19:00 +22°C° 0 mm 1 mps 714 mmHg 59%
20:00 +20°C° 0 mm 1 mps 714 mmHg 64%
21:00 +19°C° 0 mm 1 mps 714 mmHg 65%
22:00 +19°C° 0 mm 1 mps 714 mmHg 66%
23:00 +19°C° 0 mm 1 mps 714 mmHg 67%

18 July, Saturday

Time Temperature Precipitation Wind Pressure Humidity
00:00 +18°C° 0 mm 1 mps 714 mmHg 66%
01:00 +18°C° 0 mm 1 mps 713 mmHg 64%
02:00 +18°C° 0 mm 1 mps 713 mmHg 63%
03:00 +18°C° 0 mm 1 mps 713 mmHg 62%
04:00 +16°C° 0 mm 1 mps 712 mmHg 62%
05:00 +16°C° 0 mm 1 mps 712 mmHg 61%
06:00 +16°C° 0 mm 1 mps 713 mmHg 59%
07:00 +18°C° 0 mm 1 mps 713 mmHg 56%
08:00 +18°C° 0 mm 1 mps 714 mmHg 53%
09:00 +21°C° 0 mm 1 mps 714 mmHg 48%
10:00 +24°C° 0 mm 1 mps 714 mmHg 42%
11:00 +27°C° 0 mm 1 mps 715 mmHg 36%
12:00 +28°C° 0 mm 1 mps 714 mmHg 34%
13:00 +29°C° 0 mm 1 mps 714 mmHg 33%
14:00 +30°C° 0 mm 1 mps 713 mmHg 31%
15:00 +29°C° 0 mm 1 mps 713 mmHg 34%
16:00 +28°C° 0 mm 1 mps 713 mmHg 38%
17:00 +27°C° 0 mm 1 mps 713 mmHg 41%
18:00 +25°C° 0 mm 1 mps 713 mmHg 43%
19:00 +24°C° 0 mm 1 mps 714 mmHg 46%
20:00 +22°C° 0 mm 1 mps 714 mmHg 49%
21:00 +22°C° 0 mm 1 mps 714 mmHg 49%
22:00 +21°C° 0 mm 1 mps 714 mmHg 49%
23:00 +21°C° 0 mm 1 mps 714 mmHg 49%

19 July, Sunday

Time Temperature Precipitation Wind Pressure Humidity
00:00 +21°C° 0 mm 1 mps 714 mmHg 49%
01:00 +21°C° 0 mm 1 mps 714 mmHg 49%
02:00 +20°C° 0 mm 1 mps 714 mmHg 49%
03:00 +20°C° 0 mm 1 mps 714 mmHg 50%
04:00 +20°C° 0 mm 1 mps 714 mmHg 51%
05:00 +20°C° 0 mm 1 mps 714 mmHg 51%
06:00 +20°C° 0 mm 1 mps 714 mmHg 50%
07:00 +20°C° 0 mm 1 mps 714 mmHg 50%
08:00 +20°C° 0 mm 1 mps 714 mmHg 49%
09:00 +23°C° 0 mm 1 mps 715 mmHg 44%
10:00 +26°C° 0 mm 1 mps 715 mmHg 40%
11:00 +29°C° 0 mm 1 mps 715 mmHg 35%
12:00 +29°C° 0 mm 1 mps 714 mmHg 34%
13:00 +30°C° 0 mm 1 mps 714 mmHg 34%
14:00 +31°C° 0 mm 1 mps 713 mmHg 33%
15:00 +30°C° 0 mm 1 mps 713 mmHg 37%
16:00 +29°C° 0 mm 1 mps 713 mmHg 40%
17:00 +28°C° 0 mm 1 mps 713 mmHg 43%
18:00 +27°C° 0 mm 1 mps 714 mmHg 46%
19:00 +25°C° 0 mm 1 mps 714 mmHg 48%
20:00 +23°C° 0 mm 1 mps 714 mmHg 51%
21:00 +23°C° 0 mm 1 mps 714 mmHg 53%
22:00 +23°C° 0 mm 1 mps 714 mmHg 56%
23:00 +22°C° 0 mm 1 mps 714 mmHg 58%

20 July, Monday

Time Temperature Precipitation Wind Pressure Humidity
00:00 +22°C° 0 mm 1 mps 714 mmHg 59%
01:00 +21°C° 0 mm 1 mps 714 mmHg 60%
02:00 +21°C° 0 mm 1 mps 713 mmHg 60%
03:00 +21°C° 0 mm 1 mps 713 mmHg 60%
04:00 +21°C° 0 mm 1 mps 713 mmHg 61%
05:00 +20°C° 0 mm 1 mps 713 mmHg 61%
06:00 +21°C° 0 mm 1 mps 714 mmHg 60%
07:00 +21°C° 0 mm 1 mps 714 mmHg 59%
08:00 +21°C° 0 mm 1 mps 714 mmHg 58%
09:00 +23°C° 0 mm 1 mps 714 mmHg 53%
10:00 +26°C° 0 mm 1 mps 715 mmHg 49%
11:00 +28°C° 0 mm 2 mps 715 mmHg 45%
12:00 +29°C° 0 mm 2 mps 714 mmHg 43%
13:00 +29°C° 0 mm 2 mps 714 mmHg 42%
14:00 +30°C° 0 mm 2 mps 713 mmHg 41%
15:00 +29°C° 0 mm 2 mps 713 mmHg 44%
16:00 +29°C° 0 mm 1 mps 713 mmHg 47%
17:00 +28°C° 0 mm 1 mps 713 mmHg 49%
18:00 +26°C° 0 mm 1 mps 714 mmHg 54%
19:00 +25°C° 0 mm 1 mps 714 mmHg 58%
20:00 +23°C° 0 mm 1 mps 714 mmHg 63%
21:00 +22°C° 0 mm 1 mps 714 mmHg 65%
22:00 +22°C° 0 mm 1 mps 714 mmHg 67%
23:00 +21°C° 0 mm 1 mps 715 mmHg 70%
Show more